Tracking 18030 objects as of 28-March-2017
HD Live streaming from Space Station
objects crossing your sky now

N-1 R/B

Track N-1 R/B now!
10-day predictions


NORAD ID: 8710
Int'l Code: 1976-019B
Perigee: 998.0 km
Apogee: 1,016.6 km
Inclination: 69.7 °
Period: 105.1 minutes
Semi major axis: 7378 km
RCS: 1.547 m2 (large)
Launch date: February 29, 1976
Source: Japan (JPN)
Launch site: TANEGASHIMA SPACE CENTER (TNSTA)

Note: This is a ROCKET BODY
Your satellite tracking list
Your tracking list is empty





NASA's NSSDC Master Catalog

Two Line Element Set (TLE):
1  8710U 76019B   17085.91683515 -.00000053 +00000-0 -10178-5 0  9990
2  8710 069.6793 011.6815 0012572 000.2021 062.6968 13.69838303053630
Source of the keplerian elements: AFSPC